Flag for Germany Weather past 2 weeks in Oberhausen, North Rhine-Westphalia, Germany

Now
64 °F

Passing clouds.


Feels Like: 64 °F
Forecast: 56 / 72 °F
Wind: 5 mph from Southeast

Location: Duesseldorf

Current Time: Aug 27, 2014 at 11:21:11 AM

Latest Report: Aug 27, 2014 at 10:50 AM


Visibility: N/A

Pressure: 30.01 "Hg

Humidity: 64%

Dew point: 52 °F

Location of OberhausenLocation

Historic Weather in Oberhausen — Graph

°F

Oberhausen temperature yesterday

Maximum temperature yesterday: 59 °F (at 11:20 AM)
Minimum temperature yesterday: 55 °F (at 5:20 AM)
Average temperature yesterday: 57 °F

Past Weeks' High & Low Weather Summary

 TemperatureHumidityPressure
High70 °F (Aug 12, 3:20 PM)100% (Aug 26, 8:20 AM)30.09 "Hg (Aug 26, 8:20 AM)
Low46 °F (Aug 20, 2:50 AM)43% (Aug 20, 2:50 PM)29.62 "Hg (Aug 26, 4:50 AM)
Average58 °F78%29.89 "Hg
* Reported Aug 12 10:20 AM — Aug 27 10:20 AM, Oberhausen, Weather by CustomWeather, © 2014

Note: Actual official high and low records may vary slightly from our data, if they occured in-between our weather recording intervals... More about our weather records

Advertising

Oberhausen weather history for previous 24 hours

 ConditionsComfort  
Time TempWeatherWind HumidityBarometerVisibility
10:20 AM
Aug 27
63 °FSunny.6 mph77%30.01 "Hg10 mi
9:50 AM61 °FSunny.6 mph83%30.01 "Hg10 mi
9:20 AM57 °FSunny.2 mph94%29.98 "Hg10 mi
8:50 AM55 °FClear.2 mph94%29.98 "Hg4 mi
8:20 AM52 °FFog.2 mph100%29.98 "Hg2 mi
7:50 AM50 °FFog.3 mph100%29.95 "Hg2 mi
7:20 AM50 °FSleet. Overcast.3 mph94%29.95 "Hg2 mi
6:50 AM50 °FSleet. Overcast.5 mph94%29.95 "Hg2 mi
6:20 AM50 °FFog.6 mph94%29.92 "Hg3 mi
5:50 AM52 °FPassing clouds.6 mph94%29.92 "Hg4 mi
5:20 AM52 °FFog.7 mph94%29.92 "Hg4 mi
4:50 AM52 °FFog.6 mph94%29.89 "Hg4 mi
4:20 AM52 °FFog.6 mph94%29.89 "Hg4 mi
3:50 AM52 °FFog.6 mph94%29.89 "Hg4 mi
3:20 AM54 °FClear.5 mph94%29.86 "Hg4 mi
2:20 AM54 °FSleet. Overcast.7 mph94%29.86 "HgN/A
1:50 AM55 °FSleet. Overcast.6 mph94%29.86 "HgN/A
1:20 AM55 °FFog.5 mph94%29.83 "HgN/A
12:50 AM55 °FClear.3 mph100%29.83 "Hg10 mi
12:20 AM57 °FClear.3 mph94%29.83 "Hg10 mi
11:20 PM
Aug 26
57 °FPassing clouds.6 mph94%29.80 "HgN/A
10:50 PM57 °FPassing clouds.6 mph94%29.80 "HgN/A
10:20 PM57 °FPassing clouds.6 mph94%29.80 "HgN/A
9:50 PM57 °FPassing clouds.7 mph94%29.77 "HgN/A
9:20 PM57 °FLight rain. Partly sunny.9 mph88%29.77 "HgN/A
8:50 PM57 °FRain. Broken clouds.9 mph94%29.74 "HgN/A
8:20 PM57 °FRain. Mostly cloudy.10 mph94%29.74 "HgN/A
7:50 PM57 °FLight rain. Broken clouds.10 mph94%29.74 "HgN/A
7:20 PM57 °FLight rain. Partly sunny.9 mph94%29.74 "HgN/A
6:50 PM59 °FLight rain. Partly sunny.9 mph88%29.71 "HgN/A
6:20 PM59 °FLight rain. Broken clouds.9 mph94%29.71 "HgN/A
5:50 PM57 °FLight rain. More clouds than sun.9 mph94%29.71 "HgN/A
5:20 PM59 °FRain. Overcast.10 mph88%29.71 "HgN/A
4:50 PM59 °FLight rain. Low clouds.9 mph88%29.71 "HgN/A
4:20 PM59 °FLight rain. Low clouds.10 mph88%29.71 "Hg5 mi
3:50 PM59 °FLight rain. More clouds than sun.7 mph94%29.71 "Hg5 mi
3:20 PM57 °FLight rain. Overcast.9 mph94%29.71 "HgN/A
2:50 PM57 °FLight rain. More clouds than sun.10 mph94%29.71 "HgN/A
2:20 PM57 °FLight rain. More clouds than sun.10 mph88%29.71 "Hg6 mi
1:50 PM59 °FLight rain. More clouds than sun.10 mph88%29.71 "Hg6 mi
1:20 PM59 °FLight rain. Overcast.9 mph94%29.71 "Hg5 mi
12:50 PM59 °FLight rain. More clouds than sun.10 mph94%29.71 "Hg4 mi
12:20 PM59 °FLight rain. More clouds than sun.9 mph88%29.71 "HgN/A
11:50 AM59 °FLight rain. Partly sunny.8 mph88%29.71 "HgN/A
11:20 AM59 °FLight rain. Partly sunny.7 mph88%29.68 "HgN/A
Weather by CustomWeather, © 2014

See weather overviewHow to use our weather pages